D0A00670 Weather Reports


time (UTC)temp
C
wind
direction
speed
KPH
gust
KPH
rain 1hr
cm
rain 24hr
cm
rain mn
cm
humidity
%
barometer
mb
20260507041552 10 280 4.8 9.7 0.00 0.03 0.00 84 1011.4
20260507040054 10 294 3.2 8.0 0.00 0.03 0.00 85 1011.3
20260507034555 10 245 3.2 8.0 0.00 0.03 0.00 85 1011.2
20260507033051 10 244 4.8 11.3 0.00 0.03 0.00 85 1011.2
20260507031545 10 258 3.2 9.7 0.00 0.03 0.00 85 1010.9
20260507030044 10 264 3.2 11.3 0.00 0.03 0.00 85 1010.8
20260507024543 10 261 3.2 12.9 0.00 0.03 0.00 85 1010.8
20260507023047 10 290 6.4 12.9 0.00 0.03 0.00 85 1010.7
20260507021543 10 303 6.4 16.1 0.00 0.03 0.00 85 1010.6
20260507020055 10 271 4.8 14.5 0.00 0.03 0.00 85 1010.4
20260507014536 10 291 6.4 14.5 0.00 0.03 0.00 85 1010.4
20260507013047 10 287 6.4 19.3 0.00 0.03 0.00 85 1010.3
20260507011533 10 267 3.2 12.9 0.00 0.03 0.00 84 1010.2
20260507010035 10 273 4.8 12.9 0.00 0.03 0.00 84 1010.1
20260507004529 10 265 3.2 9.7 0.00 0.03 0.00 84 1010.2
20260507003038 10 259 3.2 14.5 0.00 0.03 0.00 84 1010.2
20260507001527 10 282 4.8 9.7 0.00 0.03 0.00 84 1010.1
20260507000030 10 263 3.2 8.0 0.00 0.03 0.00 84 1010.1
20260506234524 10 309 3.2 11.3 0.00 0.03 0.00 84 1010.1
20260506233027 10 310 3.2 9.7 0.00 0.03 0.00 84 1010.0
20260506231521 10 287 1.6 8.0 0.00 0.03 0.00 84 1009.9
20260506230020 10 264 4.8 11.3 0.00 0.03 0.00 84 1009.8
20260506224518 10 285 8.0 14.5 0.00 0.03 0.00 84 1009.7
20260506223015 10 286 4.8 8.0 0.00 0.03 0.00 84 1009.7
20260506221514 10 323 3.2 6.4 0.00 0.03 0.00 85 1009.6
20260506220012 10 341 1.6 9.7 0.00 0.03 0.00 85 1009.4
20260506214510 10 286 3.2 16.1 0.00 0.13 0.03 84 1009.3
20260506213008 10 307 4.8 19.3 0.00 0.13 0.03 84 1009.2
20260506211505 11 336 3.2 8.0 0.00 0.13 0.03 84 1009.1
20260506210006 11 323 6.4 12.9 0.00 0.13 0.03 84 1008.9
20260506204501 11 313 3.2 16.1 0.00 0.20 0.03 83 1008.7
20260506203059 11 314 4.8 16.1 0.00 0.20 0.03 83 1008.7
20260506201555 11 276 3.2 12.9 0.00 0.20 0.03 82 1008.5
20260506200053 11 298 3.2 16.1 0.00 0.20 0.03 82 1008.4
20260506194551 12 349 4.8 14.5 0.00 0.20 0.03 82 1008.3
20260506193048 12 323 3.2 8.0 0.00 0.20 0.03 82 1008.1
20260506191546 12 274 4.8 12.9 0.00 0.20 0.03 82 1007.9
20260506190044 12 232 3.2 12.9 0.00 0.20 0.03 81 1007.8
20260506184549 12 291 3.2 12.9 0.00 0.20 0.03 81 1007.5
20260506183052 12 334 6.4 16.1 0.00 0.20 0.03 81 1007.1
20260506181604 13 277 8.0 17.7 0.00 0.20 0.03 81 1007.0
20260506180037 13 320 6.4 17.7 0.00 0.20 0.03 81 1006.8
20260506174534 13 277 8.0 20.9 0.00 0.20 0.03 81 1006.7
20260506173048 13 292 9.7 20.9 0.00 0.20 0.03 81 1006.4
20260506171533 13 286 11.3 24.1 0.00 0.20 0.03 82 1006.2
20260506170038 14 270 8.0 17.7 0.00 0.20 0.03 81 1006.2
20260506164537 14 315 11.3 20.9 0.00 0.20 0.03 81 1006.1
20260506163035 14 304 12.9 27.4 0.00 0.20 0.03 79 1006.3
20260506161528 15 225 6.4 20.9 0.00 0.20 0.03 76 1006.1
20260506160026 16 280 12.9 27.4 0.00 0.20 0.03 71 1005.9
20260506154526 17 269 16.1 29.0 0.00 0.23 0.03 67 1005.8
20260506153025 17 248 9.7 20.9 0.00 0.23 0.03 64 1005.5
20260506151524 17 258 4.8 16.1 0.00 0.23 0.03 64 1005.4
20260506150024 18 209 6.4 22.5 0.00 0.23 0.03 62 1005.2
20260506144525 18 201 8.0 16.1 0.00 0.28 0.03 62 1005.1
20260506143023 18 228 11.3 20.9 0.00 0.28 0.03 61 1005.2
20260506141521 17 281 4.8 20.9 0.00 0.28 0.03 64 1005.2
20260506140021 17 207 6.4 14.5 0.00 0.28 0.03 63 1005.2
20260506134519 18 247 6.4 20.9 0.00 0.56 0.03 63 1005.2
20260506133022 18 218 9.7 20.9 0.00 0.56 0.03 62 1005.2
20260506131524 18 236 11.3 19.3 0.00 0.56 0.03 61 1005.3
20260506130016 18 212 6.4 24.1 0.00 0.56 0.03 61 1005.2
20260506124514 18 251 6.4 22.5 0.00 0.56 0.03 64 1005.3
20260506123014 18 176 11.3 22.5 0.00 0.56 0.03 63 1005.2
20260506121509 18 222 8.0 22.5 0.00 0.56 0.03 63 1005.3
20260506120016 17 250 8.0 17.7 0.00 0.56 0.03 63 1005.4
20260506114518 17 192 9.7 16.1 0.00 0.56 0.03 64 1005.5
20260506113021 17 251 1.6 16.1 0.00 0.56 0.03 65 1005.5
20260506111504 17 194 11.3 20.9 0.00 0.56 0.03 66 1005.6
20260506110003 17 210 8.0 12.9 0.00 0.56 0.03 69 1005.7
20260506104606 16 213 8.0 17.7 0.00 0.56 0.03 69 1005.8
20260506103100 16 223 8.0 16.1 0.00 0.56 0.03 69 1005.9
20260506101557 16 255 8.0 17.7 0.00 0.56 0.03 70 1006.0
20260506100056 16 230 8.0 16.1 0.00 0.56 0.03 72 1006.0
20260506094557 15 243 9.7 16.1 0.00 0.56 0.03 73 1006.0
20260506093056 15 247 6.4 14.5 0.03 0.56 0.03 72 1005.9
20260506091559 16 235 6.4 14.5 0.03 0.56 0.03 70 1005.7
20260506090100 16 255 8.0 22.5 0.03 0.56 0.03 71 1005.8
20260506084553 16 223 12.9 19.3 0.03 0.56 0.03 71 1005.8
20260506083050 16 241 11.3 24.1 0.00 0.53 0.00 71 1005.6
20260506081546 15 237 6.4 19.3 0.00 0.53 0.00 75 1005.5
20260506073038 15 197 8.0 12.9 0.00 0.53 0.00 80 1005.5
20260506071535 14 210 8.0 16.1 0.00 0.53 0.00 82 1005.4
20260506061523 13 197 0.0 12.9 0.00 0.53 0.00 90 1005.4
20260506044512 11 147 0.0 8.0 0.00 0.53 0.00 94 1005.4
20260506043013 11 151 0.0 4.8 0.00 0.53 0.00 94 1005.4